petas.gr alexa rank chart, petas.gr alexa rank daily changes

petas.gr alexa rank chart, petas.gr alexa rank daily changes

petas.gr
Actual rank:
105 911

RANK HISTORY

Date Rank Diff
2017/07/22 105 911 +690
2017/07/21 105 221 -1 215
2017/07/20 106 436 -1 134
2017/07/19 107 570 -33
2017/07/18 107 603 +541
2017/07/17 107 062 -743
2017/07/16 107 805 -896
2017/07/15 108 701 -1 392
2017/07/14 110 093 -875
2017/07/13 110 968 -2 323
2017/07/12 113 291 -2 180
2017/07/11 115 471 -5 589
2017/07/10 121 060 -166
2017/07/09 121 226 -3 440
2017/07/08 124 666 -727
2017/07/07 125 393 -511
2017/07/06 125 904 -2 523
2017/07/05 128 427 -2 164
2017/07/04 130 591 +1 448
2017/07/03 129 143 -797
2017/07/02 129 940 -1
2017/07/01 129 941 +1 065
2017/06/30 128 876 +124
2017/06/29 128 752 -907
2017/06/28 129 659 +2 894
2017/06/27 126 765 -1 465
2017/06/26 128 230 +1 287
2017/06/25 126 943 -133
2017/06/24 127 076 +102
2017/06/23 126 974 +116
2017/06/22 126 858 -855
2017/06/21 127 713 -89
2017/06/20 127 802 -1 809
2017/06/19 129 611 -1 578
2017/06/18 131 189 -1 425
2017/06/17 132 614 +287
2017/06/16 132 327 +562
2017/06/15 131 765 -564
2017/06/14 132 329 +1 000
2017/06/13 131 329 -654
2017/06/12 131 983 +1 327
2017/06/11 130 656 -656
2017/06/10 131 312 -1 558
2017/06/09 132 870 -489
2017/06/08 133 359 +207
2017/06/07 133 152 -369
2017/06/06 133 521 +1 465
2017/06/05 132 056 -2 480
2017/06/04 134 536 -2 548
2017/06/03 137 084 +319
2017/06/02 136 765 +1 047
2017/06/01 135 718 -122
2017/05/31 135 840 -784
2017/05/30 136 624 -1 988
2017/05/29 138 612 +1 150
2017/05/28 137 462 -3 132
2017/05/27 140 594 +10
2017/05/26 140 584 -2 869
2017/05/25 143 453 -1 796
2017/05/24 145 249 -220
2017/05/23 145 469

WIDGET FOR YOUR SITE

DOMAINS WITH THE NEAREST RANK

Domain Rank
pinkcherry.ca 105 906
kinews.net 105 907
bouwinfo.be 105 908
ziyouz.com 105 909
private-tips.com 105 910
petas.gr 105 911
uas.edu.mx 105 912
ulogin.ru 105 913
bauhaus.hr 105 914
eadbox.com 105 915
funniesandhunnies.com 105 916

DOMAINS WITH THE NEAREST RANK BY TLD .gr

Domain Rank
ypaithros.gr 104 987
programmatileorasis.gr 104 996
typosthes.gr 105 243
rizospastis.gr 105 434
speedex.gr 105 483
petas.gr 105 911
xorisorianews.gr 105 944
lykavitos.gr 106 208
aia.gr 106 256
agrinionews.gr 106 369
fimotro.gr 106 859